Flag for Australia Weather past 2 weeks in Eucla, Western Australia, Australia

Now
60 °F

Passing clouds.


Feels Like: 60 °F
Forecast: 49 / 74 °F
Wind: 15 mph from Southeast

Location: Eucla Amo

Current Time: Aug 28, 2015 at 5:10:54 PM

Latest Report: Aug 28, 2015 at 3:45 PM


Visibility: 25 mi

Pressure: 30.21 "Hg

Humidity: 62%

Dew point: 47 °F

Location of EuclaLocation

Historic Weather in Eucla — Graph

°F

Eucla temperature yesterday

Maximum temperature yesterday: 60 °F (at 12:45 PM)
Minimum temperature yesterday: 39 °F (at 6:45 AM)
Average temperature yesterday: 51 °F

Past Weeks' High & Low Weather Summary

 TemperatureHumidityPressure
High75 °F (Aug 19, 11:45 AM)97% (Aug 14, 6:45 AM)30.46 "Hg (Aug 14, 6:45 AM)
Low39 °F (Aug 27, 6:45 AM)25% (Aug 20, 2:45 PM)29.67 "Hg (Aug 20, 2:45 PM)
Average57 °F74%30.17 "Hg
* Reported Aug 13 3:45 PM — Aug 28 3:45 PM, Eucla, Weather by CustomWeather, © 2015

Note: Actual official high and low records may vary slightly from our data, if they occured in-between our weather recording intervals... More about our weather records

Advertising

Eucla weather history for previous 24 hours

 ConditionsComfort  
Time TempWeatherWind HumidityBarometerVisibility
3:45 PM
Fri, Aug 28
60 °FPassing clouds.15 mph62%30.21 "Hg25 mi
2:45 PM62 °FRefreshingly cool.14 mph58%30.22 "HgN/A
12:45 PM67 °FMild.10 mph33%30.25 "HgN/A
11:45 AM65 °FMild.13 mph38%30.28 "HgN/A
9:45 AM58 °FPassing clouds.14 mph55%30.32 "Hg25 mi
8:45 AM53 °FCool.15 mph65%30.33 "HgN/A
6:45 AM46 °FCool.10 mph85%30.32 "HgN/A
5:45 AM47 °FCool.10 mph82%30.31 "HgN/A
3:45 AM47 °FCool.10 mph81%30.30 "HgN/A
2:45 AM49 °FCool.10 mph86%30.31 "HgN/A
12:45 AM49 °FCool.8 mph89%30.33 "HgN/A
11:45 PM
Thu, Aug 27
50 °FCool.10 mph86%30.33 "HgN/A
9:45 PM52 °FCool.7 mph83%30.36 "HgN/A
8:45 PM53 °FCool.9 mph85%30.35 "HgN/A
6:45 PM54 °FCool.10 mph84%30.33 "HgN/A
5:45 PM54 °FCool.10 mph82%30.32 "HgN/A
Weather by CustomWeather, © 2015

See weather overviewHow to use our weather pages